Flag for Norfolk Island Weather past 2 weeks in Kingston, Norfolk Island

Now
63 °F

Passing clouds.


Feels Like: 63 °F
Forecast: 63 / 70 °F
Wind: 8 mph from North

Location: Norfolk Island Airport

Current Time: May 30, 2015 at 8:07:25 PM

Latest Report: May 30, 2015 at 7:30 PM


Visibility: N/A

Pressure: 30.09 "Hg

Humidity: 64%

Dew point: 50 °F

Location of KingstonLocation

Historic Weather in Kingston — Graph

°F

Kingston temperature yesterday

Maximum temperature yesterday: 66 °F (at 9:30 AM)
Minimum temperature yesterday: 57 °F (at 8:00 PM)
Average temperature yesterday: 62 °F

Past Weeks' High & Low Weather Summary

 TemperatureHumidityPressure
High72 °F (May 22, 11:00 AM)100% (May 22, 3:00 AM)30.33 "Hg (May 22, 3:00 AM)
Low55 °F (May 30, 7:30 AM)38% (May 19, 11:00 AM)29.68 "Hg (May 23, 5:30 AM)
Average64 °F63%30.17 "Hg
* Reported May 15 6:30 PM — May 30 7:00 PM, Kingston, Weather by CustomWeather, © 2015

Note: Actual official high and low records may vary slightly from our data, if they occured in-between our weather recording intervals... More about our weather records

Advertising

Kingston weather history for previous 24 hours

 ConditionsComfort  
Time TempWeatherWind HumidityBarometerVisibility
7:00 PM
Sat, May 30
63 °FPassing clouds.6 mph64%30.09 "HgN/A
6:30 PM63 °FPassing clouds.6 mph64%30.09 "HgN/A
6:00 PM63 °FPassing clouds.6 mph59%30.09 "HgN/A
5:30 PM63 °FPassing clouds.6 mph59%30.09 "HgN/A
5:00 PM64 °FPassing clouds.7 mph56%30.09 "HgN/A
4:30 PM64 °FScattered clouds.7 mph56%30.09 "HgN/A
4:00 PM66 °FScattered clouds.9 mph52%30.07 "HgN/A
3:30 PM66 °FPartly sunny.10 mph52%30.09 "HgN/A
3:00 PM66 °FPartly sunny.8 mph52%30.09 "HgN/A
2:30 PM66 °FScattered clouds.10 mph49%30.09 "HgN/A
2:00 PM64 °FScattered clouds.8 mph52%30.12 "HgN/A
1:30 PM66 °FPartly sunny.7 mph49%30.15 "HgN/A
1:00 PM66 °FScattered clouds.6 mph49%30.15 "HgN/A
12:30 PM68 °FPassing clouds.6 mph46%30.18 "HgN/A
12:00 PM68 °FPassing clouds.8 mph46%30.18 "HgN/A
11:30 AM66 °FPassing clouds.8 mph46%30.21 "HgN/A
11:00 AM66 °FScattered clouds.8 mph49%30.21 "HgN/A
10:30 AM66 °FPartly sunny.8 mph49%30.24 "HgN/A
10:00 AM66 °FPartly sunny.7 mph49%30.24 "HgN/A
9:30 AM64 °FSunny.7 mph52%30.24 "HgN/A
9:00 AM64 °FPartly sunny.6 mph52%30.21 "HgN/A
8:00 AM61 °FSunny.5 mph59%30.21 "HgN/A
7:30 AM55 °FScattered clouds.3 mph67%30.21 "HgN/A
7:00 AM57 °FPartly sunny.No wind63%30.21 "HgN/A
6:30 AM59 °FClear.No wind59%30.21 "HgN/A
6:00 AM59 °FClear.No wind59%30.18 "HgN/A
5:30 AM59 °FClear.No wind55%30.18 "HgN/A
5:00 AM57 °FClear.3 mph63%30.21 "HgN/A
4:30 AM57 °FClear.5 mph63%30.21 "HgN/A
4:00 AM59 °FClear.No wind59%30.21 "HgN/A
3:30 AM59 °FClear.No wind59%30.21 "HgN/A
3:00 AM57 °FClear.No wind63%30.21 "HgN/A
2:30 AM59 °FClear.No wind59%30.21 "HgN/A
2:00 AM57 °FClear.No wind63%30.24 "HgN/A
1:30 AM57 °FClear.2 mph67%30.24 "HgN/A
1:00 AM57 °FClear.5 mph67%30.24 "HgN/A
12:30 AM57 °FPassing clouds.5 mph67%30.24 "HgN/A
12:00 AM59 °FPassing clouds.6 mph63%30.24 "HgN/A
11:30 PM
Fri, May 29
57 °FClear.6 mph67%30.24 "HgN/A
11:00 PM59 °FPassing clouds.6 mph63%30.27 "HgN/A
10:30 PM57 °FClear.6 mph67%30.27 "HgN/A
10:00 PM59 °FClear.6 mph63%30.27 "HgN/A
9:30 PM57 °FClear.5 mph72%30.27 "HgN/A
9:00 PM59 °FClear.6 mph68%30.27 "HgN/A
8:30 PM59 °FPassing clouds.6 mph68%30.27 "HgN/A
8:00 PM57 °FPassing clouds.6 mph72%30.27 "HgN/A
Weather by CustomWeather, © 2015

See weather overviewHow to use our weather pages